Regional Weather Roundup
Issued by NWS Newport/Morehead, NC

Current Version | Previous Version | Graphics & Text | Print | Product List | Glossary Off
Versions: 1 2 3 4 5 6 7 8 9 10 11 12 13 14 15 16 17 18 19 20 21 22 23 24 25 26 27 28 29 30 31 32 33 34 35 36 37 38 39 40 41 42 43 44 45 46 47 48 49 50

453
ASUS42 KMHX 272313
RWRMHX
WEATHER ROUNDUP FOR EASTERN NORTH CAROLINA
NATIONAL WEATHER SERVICE NEWPORT/MOREHEAD CITY NC
700 PM EDT SAT AUG 27 2016

NOTE: "FAIR" INDICATES FEW OR NO CLOUDS BELOW 12,000 FEET
WITH NO SIGNIFICANT WEATHER AND/OR OBSTRUCTIONS TO VISIBILITY

NCZ015>017-031-032-045>047-102-103-280000-
NORTH COAST

CITY           SKY/WX    TMP DP  RH WIND       PRES   REMARKS
EDENTON        CLEAR     86  70  59 E6        30.08S
ELIZABETH CITY CLEAR     83  74  74 NE14      30.08F
KITTY HAWK     MOCLDY    82  81  95 NE5       30.07S
MANTEO         CLOUDY    81  79  93 E10       30.08S

$$

NCZ045>047-081-094-103-104-280000-
CENTRAL COAST

CITY           SKY/WX    TMP DP  RH WIND       PRES   REMARKS
FRISCO         CLEAR     83  77  82 NE6       30.06F

$$

NCZ095-097-098-100-101-280000-
SOUTHERN COAST

CITY           SKY/WX    TMP DP  RH WIND       PRES   REMARKS
BEAUFORT       CLEAR     83  76  79 E7        30.05F
CEDAR ISLAND   NOT AVBL
JACKSONVILLE   LGT RAIN  84  74  71 SE7       30.05R
PINEY ISLAND   NOT AVBL
WILMINGTON     CLEAR     84  73  69 SE7       30.04F


$$

NCZ011>013-027>030-043-044-078>080-089-090>093-098-280000-
COASTAL PLAIN

CITY           SKY/WX    TMP DP  RH WIND       PRES   REMARKS
AHOSKIE        CLEAR     85  71  61 NE7       30.08S
CLINTON        CLOUDY    84  76  76 CALM      30.05R
ELIZABETHTOWN  PTCLDY    88  73  61 SE7       30.04R
GOLDSBORO      PTCLDY    85  79  83 S2        30.03R
GREENVILLE     CLEAR     88  70  55 E8        30.08R
HAVELOCK       PTCLDY    85  75  72 E8        30.06S
KENANSVILLE    CLOUDY    81  75  83 CALM      30.05R
KINSTON        NOT AVBL
NEW BERN       CLEAR     86  72  62 E6        30.06S
RICHLANDS      RAIN      81  77  89 VRB5      30.06R FOG
ROCKY MOUNT    CLEAR     89  70  53 NE8       30.06R
WASHINGTON     CLEAR     85  71  61 NE5       30.06S
WHITEVILLE     PTCLDY    87  74  64 CALM      30.03S

$$

AMZ130-135-150-152-154-156-158-170-250-252-270-ANZ085-086-088-633-658-670-280000-
MARINE OBSERVATIONS

STATION/POSITION TIME  TEMP    WIND        PRES    WAVE   SWELL
                       AIR SEA DIR/SP/G            HT/PER HT/PER
                 (UTC) (F)     (DEG/KT/KT) (MB)    (FT/S) (FT/S)
CHESAPEAKE LIGHT NOT AVBL
64 E VA BEACH    2250   80 81   30/ 16/ 17 1018.4    3/ 9   2/ 9
DUCK             2200   80 80   40/ 12/ 14 1018.3
2 E DUCK         2211      79                N/A     3/ 9
OREGON INLET     2200   82 83   30/  8/ 11 1018.4
13E OREGON INLT  2300      82                N/A     3/ 9   3/ 9
HATTERAS CG      2200   83 84   60/  8/ 11 1017.9
DIAMOND BUOY     2250   83 85   50/  8/ 10 1017.9    3/ 9   3/ 9
CAPE LOOKOUT     2300   83      90/ 10/ 11 1017.3
BEAUFORT LAB     2200   85 82  120/  9/ 14 1017.2
30 SE NEW RVR IN 2208   84 85  110/ 10/ 12 1017.4
30 SE NEW RVR IN 2225      85                N/A     3/ 8
27 SE WRIGHTSVLE 2208   84 85  110/  8/ 12 1017.5
5 SE WRIGHTSVLE  2208   84 84  150/  8/ 12 1018.4
225 S CAPE HAT   2250   83 84   60/ 14/ 16 1016.0    4/ 8   3/ 8
41 SE CHARLESTON 2250   84 85   70/ 12/ 14 1016.1    5/10   3/10

$$




USA.gov is the U.S. government's official web portal to all federal, state and local government web resources and services.